Wetbulb
56.73 56.66 56.64 56.81 57.95 60.73 61.98 62.89 64.67 63.31 62.45 62.42 62.24 61.80 61.63 60.82 59.95 58.42 57.19 55.41 53.10 51.11
56.36 56.66 56.64 57.43 57.94 58.27 59.43 60.68 61.98 62.97 61.30 60.69 60.87 60.64 60.19 59.56 58.33 56.91 55.58 53.69 52.92 50.90
55.43 55.67 56.09 56.82 56.92 57.74 58.61 59.16 59.63 60.51 60.36 58.61 59.26 59.13 58.24 57.20 55.91 54.71 53.71 52.52 50.29 43.17
53.97 54.76 55.24 55.28 55.34 55.34 55.60 55.55 55.95 56.79 56.97 56.89 56.81 55.65 53.99 53.77 52.66 52.06 47.46 45.57 42.52 39.56
52.45 53.04 53.56 53.77 53.55 53.60 53.11 52.81 52.57 52.74 52.69 53.60 52.70 51.72 50.33 48.56 47.27 43.82 41.43 39.60 38.82 36.27
48.79 49.25 49.21 49.45 49.62 49.60 49.88 49.72 48.93 48.99 48.67 48.45 47.93 46.90 45.27 44.18 41.02 40.50 38.70 37.80 37.52 36.96
45.87 46.15 46.44 45.75 44.99 44.90 45.07 44.88 44.05 43.81 43.12 42.40 41.92 41.06 40.13 40.31 39.57 39.72 38.17 37.65 37.28 36.83
43.74 43.35 42.52 41.85 41.81 41.41 40.94 40.96 41.43 40.96 40.33 40.20 39.55 39.34 38.39 38.03 37.27 36.63 35.91 36.07 36.11 35.85
41.51 40.87 40.34 40.01 39.83 39.61 39.69 39.62 39.85 39.68 39.44 39.27 39.38 40.35 39.79 38.01 36.74 35.72 34.64 33.33 33.78 35.76
39.58 38.88 38.72 38.58 37.95 37.47 37.42 37.93 37.44 38.08 39.24 39.08 40.13 41.21 39.80 37.90 34.35 33.21 32.52 32.31 32.57 33.16
37.18 36.47 36.80 36.64 36.01 35.73 35.58 34.29 33.36 33.95 35.10 35.93 38.45 39.37 38.09 36.32 32.37 31.89 32.04 32.61 32.56 31.74
36.48 35.60 35.24 34.22 33.95 34.80 34.35 33.17 32.87 33.39 32.87 32.72 34.12 37.73 37.02 33.80 32.16 31.46 31.08 31.73 31.96 31.63
36.14 35.43 34.25 34.63 33.83 34.13 34.40 33.82 33.92 32.76 33.24 34.92 33.29 34.25 33.47 32.44 31.79 30.56 30.37 31.41 31.27 31.08
36.35 35.64 35.29 34.39 34.13 32.86 32.76 32.58 32.50 33.28 33.71 34.55 34.39 33.73 34.13 33.75 32.15 31.03 30.40 29.66 28.77 29.58
MSLP
1010.30 1010.11 1009.90 1009.63 1009.43 1009.14 1008.96 1008.91 1009.01 1009.84 1010.44 1010.74 1010.91 1011.08 1011.35 1011.51 1011.66 1012.15 1012.57 1013.08 1013.45 1013.90
1010.28 1010.15 1010.01 1009.84 1009.64 1009.46 1009.21 1009.04 1008.96 1009.09 1009.72 1010.22 1010.68 1010.86 1011.07 1011.12 1011.27 1011.77 1012.20 1012.87 1013.54 1014.23
1010.74 1010.55 1010.38 1010.20 1010.06 1009.92 1009.75 1009.55 1009.39 1009.27 1009.48 1009.67 1010.11 1010.50 1011.00 1011.13 1011.27 1011.62 1012.12 1012.53 1013.22 1014.28
1011.14 1010.87 1010.60 1010.41 1010.45 1010.50 1010.55 1010.50 1010.33 1010.17 1010.15 1010.15 1010.31 1010.49 1011.10 1011.56 1011.70 1011.88 1012.40 1012.95 1013.54 1014.50
1011.55 1011.29 1010.97 1010.89 1010.98 1011.01 1011.06 1011.09 1010.92 1010.71 1010.70 1010.60 1010.76 1010.46 1011.36 1012.36 1012.62 1012.47 1013.19 1013.64 1014.19 1014.95
1012.22 1012.01 1011.95 1011.92 1011.68 1011.63 1011.62 1011.79 1011.73 1011.34 1011.29 1011.52 1011.54 1010.60 1011.30 1012.87 1013.90 1013.78 1013.89 1014.25 1014.62 1015.29
1013.11 1013.06 1012.90 1012.83 1012.56 1012.39 1012.53 1012.63 1012.68 1012.53 1012.43 1012.03 1012.03 1012.14 1011.55 1013.57 1014.20 1014.77 1014.89 1014.94 1015.26 1015.62
1014.02 1013.95 1013.82 1013.57 1013.60 1013.67 1013.62 1013.70 1013.74 1013.51 1013.36 1013.36 1012.89 1013.21 1013.25 1014.02 1014.88 1015.35 1015.76 1015.88 1015.98 1016.31
1014.59 1014.43 1014.45 1014.62 1014.84 1014.68 1014.50 1014.42 1014.37 1014.33 1014.21 1014.27 1013.76 1014.17 1014.85 1015.33 1015.74 1015.81 1016.28 1016.81 1016.80 1016.99
1015.23 1015.26 1015.42 1015.69 1015.72 1015.60 1015.52 1015.47 1015.36 1015.17 1014.98 1014.71 1014.99 1015.48 1015.94 1016.61 1016.85 1016.92 1017.28 1017.50 1017.62 1017.75
1016.25 1016.22 1016.48 1016.59 1016.46 1016.44 1016.45 1016.43 1016.45 1016.41 1016.44 1015.92 1016.45 1016.91 1017.02 1017.36 1017.74 1017.95 1018.05 1018.22 1018.22 1018.09
1017.09 1017.01 1017.26 1017.24 1017.22 1017.28 1017.23 1017.20 1017.36 1017.54 1017.37 1017.43 1017.94 1017.93 1017.83 1018.17 1018.43 1018.67 1018.69 1018.54 1018.45 1018.39
1017.55 1017.61 1017.75 1017.85 1017.84 1017.89 1017.84 1017.86 1018.13 1018.30 1018.39 1018.47 1018.53 1018.55 1018.65 1018.59 1018.37 1018.46 1018.37 1018.47 1018.65 1018.71
1017.93 1018.05 1018.29 1018.32 1018.38 1018.45 1018.53 1018.67 1018.68 1018.58 1018.56 1018.57 1018.61 1018.68 1018.70 1018.56 1018.36 1018.39 1018.53 1018.64 1018.70 1018.84
Wind_Speed
8 6 6 8 9 8 8 8 9 8 9 11 12 11 10 9 10 12 12 15 10 7
7 7 7 9 8 7 9 7 9 7 8 8 9 9 9 8 9 8 9 8 8 6
6 6 6 6 7 9 10 10 10 9 9 2 6 6 6 6 5 7 6 5 6 6
7 8 7 6 6 6 7 7 8 9 7 5 1 1 1 4 4 4 5 6 8 8
8 9 8 8 9 9 8 7 6 6 6 5 1 5 3 2 2 6 7 7 9 9
9 9 9 9 9 10 9 8 7 5 3 3 1 8 8 5 3 4 7 7 9 10
9 9 8 8 9 10 9 8 8 6 5 7 7 6 12 7 7 5 6 8 9 9
8 9 9 11 10 9 9 8 7 6 7 7 7 6 9 9 8 8 8 7 7 7
8 9 10 10 8 8 8 7 7 8 8 8 7 13 11 8 7 9 8 8 8 7
9 8 8 8 8 8 9 9 11 10 10 12 11 16 16 15 7 8 8 7 6 6
7 8 7 7 8 8 7 9 7 10 11 13 10 17 18 16 8 7 7 6 5 5
6 8 7 7 7 6 8 9 9 8 10 11 8 14 16 10 6 5 5 5 4 5
8 7 7 7 7 7 8 8 7 8 8 12 8 11 8 5 3 4 4 4 4 4
8 8 7 7 6 7 7 7 6 5 5 5 6 6 7 7 4 3 2 2 2 2
Wind_Direction
293 284 282 272 271 275 272 260 222 209 224 236 234 230 225 225 221 212 218 219 211 208
306 302 300 300 289 288 285 286 287 264 199 219 239 236 228 227 217 215 212 211 210 205
331 337 327 316 319 322 319 312 298 279 276 238 221 228 233 233 201 200 207 192 170 107
333 334 330 332 339 333 323 314 308 305 302 283 262 133 263 262 236 214 131 128 136 130
348 343 343 356 358 357 349 341 345 337 337 300 338 101 68 337 360 127 136 131 133 131
3 4 5 6 11 8 6 1 359 8 10 328 29 86 77 79 90 109 126 135 136 134
12 10 13 20 24 26 23 11 15 20 48 62 65 69 99 101 110 115 113 117 121 130
18 24 26 29 30 35 38 36 26 38 48 56 82 80 82 107 114 113 98 86 89 86
29 37 37 40 39 49 50 55 59 55 62 67 65 87 96 94 99 97 90 82 73 74
34 45 46 52 58 51 50 51 48 49 57 57 62 83 88 79 64 73 78 87 85 90
43 53 51 61 61 57 62 62 60 59 58 64 74 82 83 81 66 64 66 72 82 96
59 69 69 64 56 54 67 65 61 57 61 71 66 75 77 74 69 80 87 86 88 111
74 71 69 71 72 72 70 73 78 73 66 74 77 74 83 118 162 124 111 104 109 64
84 84 81 76 76 84 85 87 88 98 111 109 110 84 66 42 49 48 53 42 43 77